Regional Weather Roundup
Issued by NWS

Home | Current Version | Previous Version | Text Only | Print | Product List | Glossary On
Versions: 1 2 3 4 5 6 7 8 9 10 11 12 13 14 15 16 17 18 19 20 21 22 23 24 25 26 27 28 29 30 31 32 33 34 35 36 37 38 39 40 41 42 43 44 45 46 47 48 49 50
000
ASUS46 KLOX 301213
RWRCA

SOUTHERN CALIFORNIA WEATHER ROUNDUP
NATIONAL WEATHER SERVICE OXNARD CALIFORNIA
500 AM PDT TUE JUN 30 2015

NOTE: "FAIR" INDICATES FEW OR NO CLOUDS BELOW 12,000 FEET WITH NO
SIGNIFICANT WEATHER AND/OR OBSTRUCTIONS TO VISIBILITY.

  -  STATIONS PRECEEDED BY AN ASTERISK (*) ARE NOT NWS OR FAA
     STATIONS AND ARE NOT SUBJECT TO NWS AND FAA QUALITY CONTROL.

CAZ041-042-087-301300-
LA AND ORANGE COUNTY COASTAL AREAS


CITY           SKY/WX    TMP DP  RH WIND       PRES   REMARKS
L.A. DOWNTOWN  PTCLDY    67  61  81 CALM      29.87S
L.A. AIRPORT   PTCLDY    66  62  87 W6        29.88S
LONG BEACH     PTCLDY    69  62  78 CALM      29.87S

CITY           SKY/WX    TMP DP  RH WIND       PRES   REMARKS
AVALON           N/A     63 N/A N/A MISG        N/A
FULLERTON      PTCLDY    68  62  81 CALM      29.86S
*GETTY CENTER    N/A     68  59  73 S1          N/A
HAWTHORNE      PTCLDY    68  61  78 CALM      29.87F
*LOS ALAMITOS  FAIR      65  64  97 CALM      29.86F
*REDONDO BEACH   N/A     65  61  88 CALM      29.87S
SANTA ANA      PTCLDY    67  63  87 CALM      29.86F
STA MONICA APT CLEAR     67  61  81 SW3       29.88S
*UCLA            N/A     66  57  72 CALM      29.85S

$$

CAZ547-548-048-301300-
LA COUNTY VALLEYS AND INLAND EMPIRE


CITY           SKY/WX    TMP DP  RH WIND       PRES   REMARKS
BURBANK        PTCLDY    73  57  57 CALM      29.88S
VAN NUYS       PTCLDY    72  57  59 CALM      29.88S

CITY           SKY/WX    TMP DP  RH WIND       PRES   REMARKS
CORONA AIRPORT PTSUNNY   67  61  81 CALM      29.88S
*CHATSWORTH      N/A     70  55  59 CALM      29.84S
CHINO          MOCLDY    68  60  75 CALM      29.89S
MARCH AFB      PTCLDY    69  56  62 CALM      29.90S
*NORTHRIDGE      N/A     70  55  60 CALM        N/A
ONTARIO        MOCLDY    71  59  65 S3        29.88S
*PASADENA        N/A    N/A N/A N/A CALM        N/A
RIVERSIDE      PTCLDY    71  59  65 CALM      29.88S
SAN BERNARDINO NOT AVBL
*SAN GABRIEL     N/A     70  59  69 SW2       29.93S
*WHITEMAN AP   NOT AVBL
*WOODLAND HILL   N/A     68  57  68 SE2         N/A

$$

CAZ054-055-301300-
LA AND SAN BERNARDINO COUNTY MOUNTAINS


CITY           SKY/WX    TMP DP  RH WIND       PRES   REMARKS
*BIG BEAR AIRP SUNNY     52  43  71 CALM      30.29S
SANDBERG       PTCLDY    79  48  33 W3        30.11S

$$

CAZ028-029-059-060-099-301300-
ANTELOPE VALLEY AND SURROUNDING AREAS


CITY           SKY/WX    TMP DP  RH WIND       PRES   REMARKS
LANCASTER      MOCLDY    72  41  32 CALM      29.95S
PALMDALE       MOCLDY    77  42  28 S8        29.96S

CITY           SKY/WX    TMP DP  RH WIND       PRES   REMARKS
29 PALMS       PTCLDY    83  51  33 N5        29.97S
BARSTOW/DAGGET PTCLDY    84  45  25 W9        29.90S
BISHOP         PTCLDY    67  48  50 NW6       30.10S
CHINA LAKE     CLOUDY    82  48  30 S8        29.91S
EDWARDS AFB    MOCLDY    78  43  28 SW9       29.92S
MOJAVE         FAIR      79  50  36 SW5       29.96F
NEEDLES        CLOUDY    97  53  22 S3        29.79R HX  94
VICTORVILLE    PTCLDY    73  50  43 CALM      29.98S

$$

CAZ039-040-301300-
VENTURA AND SANTA BARBARA COUNTY COAST


CITY           SKY/WX    TMP DP  RH WIND       PRES   REMARKS
CAMARILLO      CLEAR     62  57  83 CALM      29.87S
NWS OXNARD       N/A     61  57  86 CALM      29.87S
OXNARD AIRPORT CLEAR     63  58  83 CALM      29.87S
*POINT MUGU    CLEAR     62  57  83 CALM      29.88S
SBA APT/GOLETA CLEAR     62  58  86 E3        29.87R
*SANTA BARBARA   N/A     63  58  82 CALM      29.95F
*VENTURA         N/A     62  56  80 CALM      29.50R

$$

CAZ044-045-301300-
VENTURA COUNTY VALLEYS


CITY           SKY/WX    TMP DP  RH WIND       PRES   REMARKS
*SIMI VALLEY     N/A     66  53  62 CALM      29.81S
*OJAI            N/A     62  53  73 CALM      29.81R
*FILLMORE        N/A     62  56  82 CALM      29.77S

$$

CAZ053-301300-
VENTURA COUNTY MOUNTAINS


CITY           SKY/WX    TMP DP  RH WIND       PRES   REMARKS

$$

CAZ034-035-036-301300-
CENTRAL COAST AND SANTA YNEZ VALLEY


CITY           SKY/WX    TMP DP  RH WIND       PRES   REMARKS
SAN LUIS OBISP CLEAR     59  53  80 SE3       29.88S
SANTA MARIA    CLEAR     57  54  89 CALM      29.89S

CITY           SKY/WX    TMP DP  RH WIND       PRES   REMARKS
*CAL POLY SLO    N/A     59  55  88 CALM        N/A
*LOMPOC        CLOUDY    57  52  82 CALM      29.90S
*PISMO BEACH     N/A     57  55  92 CALM      29.89S
*SANTA YNEZ    FAIR      55  52  88 CALM      29.89S

$$

CAZ037-038-051-301300-
SAN LUIS OBISPO COUNTY INTERIOR AND CUYAMA VALLEY


CITY           SKY/WX    TMP DP  RH WIND       PRES   REMARKS
*CUYAMA          N/A     68  54  60 E2        29.81S
PASO ROBLES    CLEAR     66  52  60 CALM      29.90F

$$

CAZ032-033-061-301300-
SOUTHERN DESERTS


CITY           SKY/WX    TMP DP  RH WIND       PRES   REMARKS
BLYTHE         PTCLDY    89  62  40 S10       29.78R
IMPERIAL       CLEAR     83  71  67 SE6       29.76R
PALM SPRINGS   PTCLDY    90  53  28 N5        29.81S
THERMAL        CLEAR     82  70  66 NE3       29.75R

$$

ELSEWHERE ACROSS THE WESTERN UNITED STATES AND MEXICO


CITY           SKY/WX    TMP DP  RH WIND       PRES   REMARKS
DENVER, CO     MOCLDY    64  50  60 SW9       30.17S
GRAND CANYON,  PTCLDY    50  48  93 NE3       30.29S
HONOLULU, HI   PTCLDY    77  70  78 N3        29.97F
KAHULUI, MAUI  CLEAR     73  68  83 SE3       29.98F
LAKE TAHOE, CA MOCLDY    57  53  86 S5        30.29S
LAS VEGAS, NV  CLOUDY    95  51  22 S9        29.83F HX  92
MAMMOTH LAKES, FAIR      54  43  66 CALM      30.35F
MEXICO CITY, M CLOUDY    59  52  77 E3        30.32R
PHOENIX, AZ    MOCLDY    86  71  60 E7        29.83R HX  91
PORTLAND, OR   PTCLDY    62  58  86 N3        30.10R
RENO, NV       MOCLDY    73  52  47 CALM      30.15S
SALT LAKE CITY CLOUDY    79  53  40 E10       30.05R
SAN DIEGO, CA  MOCLDY    67  63  87 NW3       29.89S
SAN FRANCISCO, PTCLDY    55  53  93 NW12      29.91S
SAN JOSE, CA   CLEAR     61  56  83 NW6       29.90S
SEATTLE, WA    MOCLDY    59  57  93 S6        30.11R
TIJUANA, MEX   CLEAR     64  59  82 CALM      29.90S

$$

STATION/POSITION TIME  TEMP    WIND        PRES    VSBY  WAVE
                       AIR SEA DIR/SP/G                  HT/PER
                 (UTC) (F)     (DEG/KT/KT) (MB)    (MI)  (FT/S)
POINT ARGUELLO B NOT AVBL
WEST SANTA BARBA 1150   57 59  310/ 17/ 19 1010.9S         5/ 7
POINT CONCEPTION NOT AVBL
EAST SANTA BARBA 1200   60 64  230/ 10/ 12 1012.1R
SANTA MONICA BAY 1150   63 67   30/  4/  4 1011.7F         4/ 7


USA.gov is the U.S. government's official web portal to all federal, state and local government web resources and services.